User: anonymous   Login
Location: Abraham Lincoln Continuation High School
(33.9711°N, 117.3662°W)
Time: 19:42:11
(UTC+00:00)
Language:

Cosmos 1535 Rocket - Orbit

View from above orbital plane
View from above orbital plane
View from above satellite
View from above satellite

Ground track
Ground track

The orbit data is extracted from the following two-line orbital elements,

1 14680U 84010B   20333.14344920 -.00000014  00000-0 -30194-4 0  9998
2 14680  82.9574 187.2175 0038621 129.3291 345.8907 13.76512997849416
Epoch (UTC): 28 November 2020 03:26:34
Eccentricity: 0.0038621
inclination: 82.9574°
perigee height: 948 km
apogee height: 1004 km
right ascension of ascending node: 187.2175°
argument of perigee: 129.3291°
revolutions per day: 13.76512997
mean anomaly at epoch: 345.8907°
orbit number at epoch: 84941

The dashed part of the orbit path shows where the satellite is in the earth's shadow,  

DLR